ENY3728 KMIA-KCHS

Flight info

Callsign ENY3728
Flight time 1h 16m
Altitude 29000
Route ALTNN2 DUCEN Q87 VIYAP SAV BAGGY3
Aircraft E175/M-SDE3GILORVW/S

Departure

Time 2026-05-09 02:25
Airport Miami International Airport (KMIA)

Arrival

Time 2026-05-09 03:42
Airport Charleston International Airport (KCHS)
Time Latitude Longitude Altitude Speed Heading
2026-05-09 01:45 25.79722 -80.28493 13 ft 0 kts
2026-05-09 02:12 25.79716 -80.28494 13 ft 2 kts
2026-05-09 02:13 25.79696 -80.28493 16 ft 3 kts 351°
2026-05-09 02:13 25.79678 -80.28486 14 ft 3 kts 324°
2026-05-09 02:13 25.79669 -80.28472 13 ft 2 kts 268°
2026-05-09 02:13 25.79669 -80.28468 13 ft 2 kts 263°
2026-05-09 02:17 25.79669 -80.28472 13 ft 2 kts 262°
2026-05-09 02:17 25.79665 -80.28508 13 ft 7 kts 262°
2026-05-09 02:18 25.79654 -80.28570 13 ft 9 kts 258°
2026-05-09 02:18 25.79648 -80.28634 13 ft 7 kts 269°
2026-05-09 02:18 25.79646 -80.28677 14 ft 5 kts 266°
2026-05-09 02:18 25.79643 -80.28722 13 ft 7 kts 264°
2026-05-09 02:19 25.79645 -80.28786 13 ft 9 kts 292°
2026-05-09 02:19 25.79707 -80.28815 15 ft 11 kts 356°
2026-05-09 02:19 25.79792 -80.28819 13 ft 13 kts 358°
2026-05-09 02:19 25.79888 -80.28823 13 ft 15 kts 358°
2026-05-09 02:20 25.79974 -80.28828 14 ft 10 kts 349°
2026-05-09 02:20 25.80013 -80.28880 14 ft 10 kts 272°
2026-05-09 02:20 25.80010 -80.28967 14 ft 12 kts 267°
2026-05-09 02:20 25.80006 -80.29069 14 ft 14 kts 266°
2026-05-09 02:21 25.80000 -80.29181 14 ft 16 kts 267°
2026-05-09 02:21 25.79995 -80.29307 13 ft 18 kts 268°
2026-05-09 02:21 25.79989 -80.29451 12 ft 20 kts 267°
2026-05-09 02:21 25.79983 -80.29591 12 ft 11 kts 268°
2026-05-09 02:22 25.79981 -80.29683 12 ft 13 kts 266°
2026-05-09 02:22 25.79975 -80.29790 12 ft 15 kts 266°
2026-05-09 02:22 25.79971 -80.29906 11 ft 13 kts 270°
2026-05-09 02:22 25.79973 -80.29952 11 ft 0 kts 284°
2026-05-09 02:23 25.79975 -80.29960 11 ft 3 kts 285°
2026-05-09 02:24 25.79981 -80.29984 13 ft 7 kts 285°
2026-05-09 02:24 25.80000 -80.30054 11 ft 12 kts 287°
2026-05-09 02:24 25.80050 -80.30132 12 ft 12 kts 355°
2026-05-09 02:24 25.80074 -80.30069 11 ft 13 kts 88°
2026-05-09 02:25 25.80086 -80.29775 11 ft 73 kts 87°
2026-05-09 02:25 25.80119 -80.28955 15 ft 139 kts 87°
2026-05-09 02:25 25.80165 -80.27703 271 ft 175 kts 88°
2026-05-09 02:25 25.80239 -80.26363 837 ft 164 kts 86°
2026-05-09 02:26 25.80324 -80.25138 931 ft 155 kts 88°
2026-05-09 02:26 25.80381 -80.23877 1271 ft 174 kts 90°
2026-05-09 02:26 25.80365 -80.22487 1927 ft 186 kts 92°
2026-05-09 02:26 25.80335 -80.20999 2625 ft 199 kts 94°
2026-05-09 02:27 25.80379 -80.19377 3171 ft 226 kts 83°
2026-05-09 02:27 25.80659 -80.17574 3845 ft 243 kts 72°
2026-05-09 02:27 25.81595 -80.16002 4727 ft 251 kts 39°
2026-05-09 02:27 25.83152 -80.15160 5682 ft 254 kts 11°
2026-05-09 02:28 25.84946 -80.15150 6471 ft 265 kts 355°
2026-05-09 02:28 25.86836 -80.15441 7032 ft 282 kts 351°
2026-05-09 02:28 25.88786 -80.15807 7796 ft 289 kts 349°
2026-05-09 02:28 25.90782 -80.16260 8585 ft 295 kts 344°
2026-05-09 02:29 25.92765 -80.16910 9317 ft 301 kts 342°
2026-05-09 02:29 25.94788 -80.17603 10030 ft 307 kts 341°
2026-05-09 02:29 25.96900 -80.18250 10435 ft 323 kts 344°
2026-05-09 02:29 25.99135 -80.18833 10910 ft 334 kts 346°
2026-05-09 02:30 26.01433 -80.19252 11606 ft 337 kts 352°
2026-05-09 02:30 26.03773 -80.19527 12300 ft 339 kts 353°
2026-05-09 02:30 26.06134 -80.19775 13029 ft 342 kts 353°
2026-05-09 02:30 26.08515 -80.20019 13749 ft 345 kts 353°
2026-05-09 02:31 26.10907 -80.20263 14361 ft 348 kts 353°
2026-05-09 02:31 26.13328 -80.20511 14790 ft 345 kts 352°
2026-05-09 02:31 26.15621 -80.20754 14877 ft 331 kts 351°
2026-05-09 02:31 26.18006 -80.21020 15193 ft 348 kts 353°
2026-05-09 02:32 26.20451 -80.21237 15809 ft 354 kts 353°
2026-05-09 02:32 26.22923 -80.21456 16498 ft 358 kts 352°
2026-05-09 02:32 26.25385 -80.21676 17144 ft 362 kts 352°
2026-05-09 02:32 26.27905 -80.21901 17782 ft 365 kts 352°
2026-05-09 02:33 26.29907 -80.22079 18274 ft 368 kts 352°
2026-05-09 02:33 26.32466 -80.22309 18849 ft 370 kts 351°
2026-05-09 02:33 26.35047 -80.22510 19420 ft 372 kts 351°
2026-05-09 02:34 26.37626 -80.22771 20008 ft 373 kts 350°
2026-05-09 02:34 26.40219 -80.23036 20600 ft 375 kts 349°
2026-05-09 02:34 26.42826 -80.23304 21184 ft 377 kts 349°
2026-05-09 02:34 26.45444 -80.23573 21773 ft 379 kts 349°
2026-05-09 02:35 26.48081 -80.23845 22340 ft 381 kts 349°
2026-05-09 02:35 26.50731 -80.24117 22912 ft 383 kts 348°
2026-05-09 02:35 26.53399 -80.24369 23458 ft 386 kts 349°
2026-05-09 02:35 26.56064 -80.24678 23920 ft 385 kts 345°
2026-05-09 02:36 26.58732 -80.25103 24341 ft 388 kts 345°
2026-05-09 02:36 26.61408 -80.25543 24767 ft 390 kts 345°
2026-05-09 02:36 26.64098 -80.25992 25178 ft 392 kts 345°
2026-05-09 02:36 26.66802 -80.26450 25592 ft 394 kts 343°
2026-05-09 02:37 26.69486 -80.27054 25991 ft 393 kts 340°
2026-05-09 02:37 26.72143 -80.27793 26382 ft 392 kts 336°
2026-05-09 02:37 26.74712 -80.28799 26769 ft 392 kts 334°
2026-05-09 02:37 26.77282 -80.29847 27151 ft 394 kts 333°
2026-05-09 02:38 26.79854 -80.30921 27521 ft 396 kts 333°
2026-05-09 02:38 26.82440 -80.32004 27879 ft 398 kts 333°
2026-05-09 02:38 26.85038 -80.33092 28227 ft 400 kts 333°
2026-05-09 02:38 26.87644 -80.34184 28565 ft 402 kts 333°
2026-05-09 02:39 26.90266 -80.35288 28851 ft 400 kts 332°
2026-05-09 02:39 26.95482 -80.37448 28989 ft 405 kts 333°
2026-05-09 02:40 27.00753 -80.39571 29008 ft 405 kts 333°
2026-05-09 02:40 27.06055 -80.41690 29012 ft 405 kts 334°
2026-05-09 02:41 27.11373 -80.43942 29023 ft 417 kts 332°
2026-05-09 02:41 27.16883 -80.46370 29026 ft 434 kts 332°
2026-05-09 02:42 27.22507 -80.48852 29006 ft 432 kts 332°
2026-05-09 02:42 27.28093 -80.51325 29008 ft 432 kts 332°
2026-05-09 02:43 27.33675 -80.53815 29001 ft 431 kts 330°
2026-05-09 02:43 27.39322 -80.56170 29010 ft 433 kts 333°
2026-05-09 02:44 27.45002 -80.58428 29005 ft 433 kts 333°
2026-05-09 02:44 27.50683 -80.60684 29009 ft 433 kts 333°
2026-05-09 02:45 27.56356 -80.62941 29004 ft 432 kts 333°
2026-05-09 02:45 27.62023 -80.65199 29006 ft 432 kts 333°
2026-05-09 02:46 27.67694 -80.67461 29001 ft 432 kts 333°
2026-05-09 02:46 27.73356 -80.69722 29002 ft 432 kts 333°
2026-05-09 02:47 27.79013 -80.71983 29000 ft 431 kts 333°
2026-05-09 02:47 27.84667 -80.74246 28994 ft 431 kts 333°
2026-05-09 02:48 27.90322 -80.76512 28999 ft 431 kts 333°
2026-05-09 02:48 27.95923 -80.78759 28995 ft 431 kts 333°
2026-05-09 02:49 28.01573 -80.81027 28996 ft 431 kts 333°
2026-05-09 02:49 28.07215 -80.83296 28999 ft 431 kts 333°
2026-05-09 02:50 28.12860 -80.85567 28997 ft 430 kts 333°
2026-05-09 02:50 28.18502 -80.87840 28995 ft 430 kts 333°
2026-05-09 02:51 28.24144 -80.90116 28980 ft 430 kts 333°
2026-05-09 02:51 28.29780 -80.92392 28983 ft 430 kts 333°
2026-05-09 02:52 28.35414 -80.94670 28987 ft 430 kts 333°
2026-05-09 02:52 28.41048 -80.96950 29005 ft 430 kts 333°
2026-05-09 02:53 28.46684 -80.99234 29002 ft 430 kts 333°
2026-05-09 02:53 28.52317 -81.01519 28999 ft 430 kts 333°
2026-05-09 02:54 28.57956 -81.03808 29009 ft 430 kts 333°
2026-05-09 02:54 28.63597 -81.06102 29009 ft 431 kts 333°
2026-05-09 02:55 28.69237 -81.08398 29033 ft 431 kts 333°
2026-05-09 02:55 28.74882 -81.10698 29024 ft 431 kts 333°
2026-05-09 02:56 28.80534 -81.13004 29031 ft 431 kts 333°
2026-05-09 02:56 28.86180 -81.15310 29027 ft 431 kts 332°
2026-05-09 02:57 28.91820 -81.17616 29024 ft 430 kts 332°
2026-05-09 02:57 28.97408 -81.19904 29045 ft 430 kts 332°
2026-05-09 02:58 29.03030 -81.22208 29047 ft 429 kts 332°
2026-05-09 02:58 29.08644 -81.24512 29052 ft 428 kts 332°
2026-05-09 02:59 29.14258 -81.26818 29047 ft 428 kts 332°
2026-05-09 02:59 29.19869 -81.29126 29046 ft 429 kts 332°
2026-05-09 03:00 29.25531 -81.31315 29033 ft 436 kts 338°
2026-05-09 03:00 29.31566 -81.32484 29030 ft 446 kts 347°
2026-05-09 03:01 29.37786 -81.32912 29025 ft 448 kts 348°
2026-05-09 03:01 29.44011 -81.33280 29020 ft 448 kts 348°
2026-05-09 03:02 29.50231 -81.33645 29022 ft 448 kts 348°
2026-05-09 03:02 29.56459 -81.34012 29021 ft 448 kts 348°
2026-05-09 03:03 29.62688 -81.34379 29030 ft 448 kts 348°
2026-05-09 03:03 29.68909 -81.34747 29038 ft 448 kts 348°
2026-05-09 03:04 29.75143 -81.35117 29053 ft 448 kts 348°
2026-05-09 03:04 29.81365 -81.35485 29053 ft 448 kts 348°
2026-05-09 03:05 29.87590 -81.35855 29072 ft 448 kts 348°
2026-05-09 03:05 29.93816 -81.36225 29064 ft 448 kts 348°
2026-05-09 03:06 30.00048 -81.36596 29063 ft 448 kts 348°
2026-05-09 03:06 30.06276 -81.36967 29066 ft 448 kts 348°
2026-05-09 03:07 30.12499 -81.37338 29053 ft 448 kts 348°
2026-05-09 03:07 30.18736 -81.37711 29047 ft 449 kts 348°
2026-05-09 03:08 30.24969 -81.38084 29051 ft 449 kts 348°
2026-05-09 03:08 30.31210 -81.38458 29058 ft 450 kts 348°
2026-05-09 03:09 30.37458 -81.38833 29054 ft 450 kts 348°
2026-05-09 03:09 30.43664 -81.39229 29058 ft 450 kts 348°
2026-05-09 03:10 30.49927 -81.39556 29058 ft 451 kts 348°
2026-05-09 03:10 30.56187 -81.39885 29073 ft 450 kts 348°
2026-05-09 03:11 30.62450 -81.40215 29079 ft 451 kts 349°
2026-05-09 03:11 30.68715 -81.40549 29076 ft 451 kts 348°
2026-05-09 03:12 30.74985 -81.40881 29083 ft 451 kts 348°
2026-05-09 03:12 30.80196 -81.41157 29090 ft 452 kts 349°
2026-05-09 03:13 30.89630 -81.41658 29093 ft 453 kts 349°
2026-05-09 03:13 30.95928 -81.41994 29086 ft 453 kts 349°
2026-05-09 03:14 31.02233 -81.42330 29072 ft 454 kts 349°
2026-05-09 03:14 31.08555 -81.42668 29072 ft 455 kts 349°
2026-05-09 03:15 31.14881 -81.43006 29063 ft 456 kts 349°
2026-05-09 03:15 31.21224 -81.43342 29083 ft 457 kts 350°
2026-05-09 03:16 31.27665 -81.42818 29081 ft 470 kts
2026-05-09 03:16 31.34119 -81.41231 29083 ft 475 kts
2026-05-09 03:17 31.40573 -81.39538 29086 ft 476 kts
2026-05-09 03:17 31.47044 -81.37834 29076 ft 477 kts
2026-05-09 03:18 31.53523 -81.36126 29073 ft 478 kts
2026-05-09 03:18 31.60011 -81.34414 29063 ft 479 kts
2026-05-09 03:19 31.66508 -81.32698 29062 ft 478 kts
2026-05-09 03:19 31.72950 -81.30994 29062 ft 478 kts
2026-05-09 03:20 31.79433 -81.29276 29065 ft 478 kts
2026-05-09 03:20 31.85914 -81.27557 29041 ft 477 kts
2026-05-09 03:21 31.92392 -81.25836 29026 ft 477 kts
2026-05-09 03:21 31.98869 -81.24113 29023 ft 477 kts
2026-05-09 03:22 32.05332 -81.22391 29065 ft 476 kts
2026-05-09 03:22 32.11786 -81.20621 29063 ft 480 kts
2026-05-09 03:23 32.17923 -81.17235 29073 ft 497 kts 28°
2026-05-09 03:23 32.23105 -81.11682 29062 ft 511 kts 46°
2026-05-09 03:24 32.26960 -81.04575 28915 ft 518 kts 58°
2026-05-09 03:24 32.28711 -81.00866 28262 ft 514 kts 58°
2026-05-09 03:24 32.30443 -80.97208 27599 ft 506 kts 58°
2026-05-09 03:25 32.32141 -80.93666 26965 ft 498 kts 57°
2026-05-09 03:25 32.33876 -80.90105 26339 ft 490 kts 57°
2026-05-09 03:25 32.35622 -80.86690 25726 ft 481 kts 52°
2026-05-09 03:25 32.37530 -80.83557 25133 ft 454 kts 51°
2026-05-09 03:26 32.39339 -80.80622 24582 ft 431 kts 50°
2026-05-09 03:26 32.41096 -80.77816 24064 ft 417 kts 50°
2026-05-09 03:26 32.42794 -80.75103 23559 ft 405 kts 50°
2026-05-09 03:26 32.44468 -80.72427 23012 ft 407 kts 50°
2026-05-09 03:27 32.46156 -80.69724 22484 ft 407 kts 50°
2026-05-09 03:27 32.47783 -80.67114 21958 ft 392 kts 50°
2026-05-09 03:27 32.49392 -80.64535 21456 ft 389 kts 50°
2026-05-09 03:27 32.51000 -80.61956 20974 ft 389 kts 50°
2026-05-09 03:28 32.52601 -80.59383 20495 ft 385 kts 50°
2026-05-09 03:28 32.54180 -80.56845 20031 ft 381 kts 50°
2026-05-09 03:28 32.55747 -80.54330 19577 ft 377 kts 50°
2026-05-09 03:28 32.57293 -80.51843 19135 ft 373 kts 50°
2026-05-09 03:29 32.58808 -80.49398 18685 ft 359 kts 50°
2026-05-09 03:29 32.60221 -80.47034 18235 ft 343 kts 49°
2026-05-09 03:29 32.61651 -80.44842 17739 ft 331 kts 47°
2026-05-09 03:29 32.63056 -80.42721 17297 ft 325 kts 47°
2026-05-09 03:30 32.64445 -80.40633 16862 ft 319 kts 47°
2026-05-09 03:30 32.65796 -80.38599 16436 ft 307 kts 47°
2026-05-09 03:30 32.67146 -80.36683 15846 ft 300 kts 46°
2026-05-09 03:30 32.68430 -80.34754 15263 ft 295 kts 47°
2026-05-09 03:31 32.69708 -80.32864 14704 ft 291 kts 47°
2026-05-09 03:31 32.70973 -80.31010 14157 ft 287 kts 48°
2026-05-09 03:31 32.72221 -80.29177 13590 ft 284 kts 48°
2026-05-09 03:31 32.73455 -80.27360 12998 ft 281 kts 46°
2026-05-09 03:32 32.74921 -80.25987 12424 ft 267 kts 15°
2026-05-09 03:32 32.76669 -80.25678 11929 ft 246 kts 342°
2026-05-09 03:32 32.78285 -80.26224 11431 ft 241 kts 333°
2026-05-09 03:32 32.79877 -80.26836 10907 ft 242 kts 340°
2026-05-09 03:33 32.81584 -80.26962 10317 ft 250 kts 356°
2026-05-09 03:33 32.83303 -80.26669 9687 ft 248 kts
2026-05-09 03:33 32.84960 -80.26113 9018 ft 247 kts 14°
2026-05-09 03:33 32.86550 -80.25358 8361 ft 244 kts 16°
2026-05-09 03:34 32.88104 -80.24584 7725 ft 240 kts 15°
2026-05-09 03:34 32.89642 -80.23830 7096 ft 238 kts 17°
2026-05-09 03:34 32.91148 -80.23040 6497 ft 237 kts 16°
2026-05-09 03:34 32.92685 -80.22273 5900 ft 241 kts 17°
2026-05-09 03:35 32.94237 -80.21505 5301 ft 243 kts 19°
2026-05-09 03:35 32.95748 -80.20600 4791 ft 242 kts 30°
2026-05-09 03:35 32.97129 -80.19497 4316 ft 236 kts 24°
2026-05-09 03:35 32.98695 -80.19188 3820 ft 228 kts 350°
2026-05-09 03:36 33.00233 -80.19608 3344 ft 226 kts 342°
2026-05-09 03:36 33.01748 -80.20094 2840 ft 226 kts 352°
2026-05-09 03:36 33.03275 -80.19775 2342 ft 226 kts 30°
2026-05-09 03:36 33.04281 -80.18512 2279 ft 200 kts 70°
2026-05-09 03:37 33.04507 -80.16954 2378 ft 187 kts 104°
2026-05-09 03:37 33.03889 -80.15651 2473 ft 181 kts 135°
2026-05-09 03:37 33.02991 -80.14593 2526 ft 177 kts 140°
2026-05-09 03:37 33.02105 -80.13628 2287 ft 169 kts 140°
2026-05-09 03:38 33.01259 -80.12704 2020 ft 160 kts 140°
2026-05-09 03:38 33.00461 -80.11902 1900 ft 144 kts 144°
2026-05-09 03:38 32.99675 -80.11187 1750 ft 137 kts 146°
2026-05-09 03:38 32.98967 -80.10559 1723 ft 122 kts 146°
2026-05-09 03:39 32.98264 -80.09979 1527 ft 125 kts 150°
2026-05-09 03:39 32.97514 -80.09443 1358 ft 127 kts 154°
2026-05-09 03:39 32.96746 -80.08926 1199 ft 125 kts 152°
2026-05-09 03:39 32.96015 -80.08372 1066 ft 122 kts 148°
2026-05-09 03:40 32.95296 -80.07836 930 ft 124 kts 150°
2026-05-09 03:40 32.94562 -80.07287 815 ft 126 kts 145°
2026-05-09 03:40 32.93837 -80.06683 707 ft 128 kts 147°
2026-05-09 03:40 32.93079 -80.06122 527 ft 128 kts 149°
2026-05-09 03:41 32.92321 -80.05566 313 ft 128 kts 147°
2026-05-09 03:41 32.91566 -80.05006 134 ft 128 kts 148°
2026-05-09 03:41 32.90841 -80.04460 40 ft 110 kts 147°
2026-05-09 03:41 32.90287 -80.04043 38 ft 71 kts 148°
2026-05-09 03:42 32.90006 -80.03832 38 ft 35 kts 147°
2026-05-09 03:42 32.89851 -80.03715 37 ft 21 kts 145°
2026-05-09 03:42 32.89733 -80.03623 36 ft 16 kts 149°
2026-05-09 03:42 32.89628 -80.03580 36 ft 17 kts 180°
2026-05-09 03:43 32.89511 -80.03586 38 ft 17 kts 181°
2026-05-09 03:43 32.89389 -80.03590 38 ft 18 kts 182°
2026-05-09 03:43 32.89270 -80.03593 39 ft 16 kts 182°
2026-05-09 03:43 32.89171 -80.03596 39 ft 12 kts 181°
2026-05-09 03:44 32.89077 -80.03600 39 ft 14 kts 182°
2026-05-09 03:44 32.88970 -80.03609 39 ft 16 kts 189°
2026-05-09 03:44 32.88865 -80.03626 39 ft 13 kts 188°
2026-05-09 03:44 32.88771 -80.03650 39 ft 14 kts 217°
2026-05-09 03:45 32.88743 -80.03765 39 ft 16 kts 261°
2026-05-09 03:45 32.88693 -80.03878 36 ft 15 kts 228°
2026-05-09 03:45 32.88623 -80.03953 39 ft 8 kts 204°
2026-05-09 03:45 32.88566 -80.03953 39 ft 9 kts 154°
2026-05-09 03:46 32.88524 -80.03916 39 ft 7 kts 120°
2026-05-09 03:46 32.88526 -80.03869 39 ft 3 kts 74°
2026-05-09 03:46 32.88531 -80.03851 39 ft 3 kts 74°
2026-05-09 03:46 32.88534 -80.03837 39 ft 1 kts 74°
2026-05-09 03:47 32.88535 -80.03832 39 ft 0 kts 74°